Terminal Aerodrome Forecast
Issued by NWS

Home | Current Version | Previous Version | Graphics & Text | Print | Product List | Glossary On
Versions: 1 2 3 4 5 6 7 8 9 10 11 12 13 14 15 16 17 18 19 20 21 22 23 24 25 26 27 28 29 30 31 32 33 34 35 36 37 38 39 40
000
FTUS45 KGGW 251700
TAFOLF
TAF
KOLF 251728Z 2518/2618 33012KT P6SM OVC020
     FM252200 33010KT P6SM BKN015
     FM260600 VRB04KT P6SM SCT050 BKN200
     FM261500 VRB04KT P6SM BKN020 OVC050=

USA.gov is the U.S. government's official web portal to all federal, state and local government web resources and services.